[[{"header":{"parameterUnit":"m.s-1","parameterCategory":1,"la1":30.2991,"la2":30.254,"lo1":-89.0895,"lo2":-89.0444,"dy":0.0017,"dx":0.0017,"nx":28,"ny":28,"refTime":"2025-03-17T03:00:00:Z","depth":0,"parameterNumber":2,"parameterNumberName":"U-component_of_WINDS"},"data":[0,0,0,0,0,0,0,0,0,0,0,0,0,0,0,0,0,0,0,0,0,0,0,0,0,0,0,0,0,0,0,0,0,0,0,0,0,0,0,0,0,0,0,0,0,0,0,0,0,0,0,0,0,0,0,0,0,0,1.8205,1.8205,0,1.8267,1.8268,1.8268,1.8295,1.8295,1.8295,1.8295,1.8358,1.836,1.8362,0,0,0,0,0,0,0,0,0,0,0,0,0,1.8109,1.8111,1.8204,1.8205,1.8206,1.8267,1.8268,1.8269,1.8295,1.8295,1.8295,1.8295,1.8358,1.836,1.8362,0,0,0,0,0,0,0,0,0,0,0,0,0,1.8159,1.8111,1.8204,1.8227,1.8229,1.8267,1.8268,1.8269,1.8295,1.8295,1.8295,1.8295,1.8357,1.836,1.8362,1.8383,0,0,1.8371,1.8372,0,0,0,0,0,0,0,0,1.8156,1.8163,1.8223,1.8225,1.8228,1.8273,1.8258,1.8307,1.8295,1.827,1.8295,1.8294,1.833,1.8335,1.8347,1.8386,1.8388,1.8371,1.8373,1.8374,1.8375,0,0,0,0,0,0,0,1.8153,1.816,1.8229,1.8223,1.8227,1.8234,1.8241,1.8267,1.83,1.8272,1.8274,1.8281,1.8332,1.8344,1.8349,1.8389,1.8371,1.8373,1.8375,1.8376,1.8449,1.8449,0,0,0,0,0,0,1.8146,1.8157,1.8227,1.8231,1.8191,1.8236,1.8243,1.8259,1.83,1.8306,1.8281,1.8282,1.834,1.8346,1.8351,1.8378,1.8374,1.8376,1.8378,1.8449,1.8449,1.8449,0,0,0,0,0,0,1.8143,1.8152,1.8225,1.8195,1.8205,1.8237,1.8255,1.826,1.8273,1.8307,1.8313,1.8288,1.834,1.8347,1.8375,1.8381,1.8378,1.838,1.8448,1.8449,1.8449,1.8432,0,0,0,0,0,0,1.8141,1.8151,1.8158,1.8195,1.8206,1.8247,1.8255,1.8261,1.8278,1.8279,1.8315,1.8321,1.834,1.8371,1.8378,1.8384,1.8382,1.8448,1.8448,1.8449,1.8432,1.8432,1.8431,0,0,0,0,0,1.8137,1.815,1.8158,1.8167,1.8216,1.8247,1.8254,1.8276,1.8278,1.8286,1.8308,1.832,1.8379,1.8373,1.8381,1.8389,1.8447,1.8448,1.8449,1.8432,1.8432,1.8431,0,0,0,0,0,0,1.8113,1.8155,1.8165,1.819,1.8215,1.8252,1.8262,1.8275,1.8299,1.83,1.8327,1.8334,1.836,1.8377,1.837,1.8411,1.8414,1.8417,1.8399,1.8399,1.8398,1.8393,1.8384,0,0,0,0,0,1.8111,1.8133,1.8168,1.8188,1.82,1.8229,1.8243,1.8258,1.8285,1.8296,1.832,1.8345,1.837,1.8385,1.841,1.8435,1.8444,1.8444,1.8444,1.8444,1.8445,1.8461,1.8462,1.8452,1.8452,1.8452,0,0,1.8106,1.8132,1.8144,1.8183,1.8204,1.8227,1.8237,1.826,1.8277,1.8299,1.8327,1.8345,1.8376,1.8402,1.8415,1.8418,1.845,1.8444,1.8444,1.8446,1.8462,1.8463,1.8463,1.8452,1.8452,1.8452,0,0,1.8109,1.8131,1.815,1.8171,1.8203,1.8222,1.8227,1.8262,1.8276,1.8304,1.8321,1.8342,1.8384,1.8405,1.8421,1.8434,1.8446,1.8442,1.8439,1.8455,1.8455,1.8456,1.8461,1.8463,1.8443,1.8443,1.8443,0,1.81,1.8133,1.8158,1.818,1.8197,1.8219,1.8239,1.8258,1.8296,1.8308,1.831,1.8363,1.8385,1.8418,1.8421,1.8434,1.844,1.8437,1.8453,1.8454,1.8456,1.8461,1.8463,1.8442,1.8442,1.8443,1.8443,0,1.812,1.8144,1.8155,1.8192,1.821,1.8231,1.8259,1.8275,1.8289,1.8309,1.8338,1.8366,1.8397,1.8406,1.8419,1.8441,1.8441,1.8448,1.8451,1.8455,1.8461,1.8463,1.8441,1.8442,1.8442,1.8442,0,0,1.8108,1.816,1.8163,1.8181,1.8219,1.8237,1.826,1.829,1.8304,1.833,1.835,1.8385,1.8392,1.8411,1.8427,1.8441,1.845,1.8446,1.8447,1.8446,1.8476,1.8471,1.8472,1.8459,1.8459,1.846,1.8474,0,1.8117,1.8157,1.8181,1.8212,1.8234,1.8256,1.8276,1.8301,1.8321,1.8343,1.8365,1.839,1.8397,1.8409,1.8423,1.8446,1.8457,1.8445,1.8478,1.8478,1.8469,1.8475,1.8469,1.8481,1.8476,1.8476,1.8477,0,1.8131,1.8157,1.8191,1.8227,1.8238,1.8255,1.8285,1.8306,1.8336,1.835,1.8371,1.8388,1.8413,1.8415,1.8451,1.8443,1.8458,1.8471,1.8473,1.8476,1.8477,1.8479,1.8485,1.8487,1.848,1.848,1.848,0,1.812,1.8163,1.8189,1.8204,1.8247,1.8258,1.8277,1.8307,1.8324,1.8351,1.8363,1.8392,1.8408,1.8431,1.8456,1.8455,1.849,1.8494,1.8502,1.8501,1.8507,1.8506,1.8516,1.8517,1.8517,1.8517,1.8517,0,1.8126,1.8146,1.8185,1.8201,1.8224,1.8251,1.8273,1.8294,1.8321,1.8341,1.8362,1.8382,1.8413,1.8437,1.8457,1.8483,1.849,1.8502,1.8507,1.85,1.8499,1.851,1.851,1.8518,1.8518,1.8517,1.8517,0,1.8116,1.8143,1.8173,1.8212,1.8222,1.8238,1.8271,1.8288,1.8309,1.8335,1.8343,1.8377,1.8405,1.8433,1.8471,1.8484,1.8511,1.8518,1.8501,1.8504,1.851,1.8509,1.8527,1.8531,1.853,1.853,1.853,0,1.8118,1.8134,1.8175,1.8191,1.8209,1.8233,1.8252,1.828,1.8298,1.8334,1.8347,1.8377,1.8403,1.8448,1.8476,1.8506,1.8513,1.8517,1.8518,1.851,1.8513,1.8512,1.8514,1.8516,1.8516,1.8516,1.8516,0,1.8119,1.8132,1.8158,1.8188,1.8209,1.8235,1.8261,1.8272,1.8306,1.8325,1.8355,1.8375,1.8415,1.8445,1.8478,1.8498,1.8513,1.8516,1.852,1.8512,1.8502,1.8508,1.8499,1.8515,1.8515,1.8515,1.8515,1.8515,1.8116,1.8131,1.8163,1.8191,1.8214,1.8238,1.8256,1.828,1.8305,1.834,1.8355,1.8385,1.8417,1.8463,1.8483,1.8507,1.8511,1.8515,1.8517,1.8517,1.8516,1.8498,1.8513,1.8513,1.8513,1.8514,1.8514,0,1.8118,1.814,1.8165,1.8201,1.8224,1.8236,1.8266,1.8284,1.831,1.8338,1.8364,1.8399,1.8428,1.8459,1.8491,1.8505,1.8513,1.8512,1.8511,1.8516,1.8511,1.8505,1.8506,1.8506,1.8506,1.8506,1.8506,1.8506,1.8122,1.8149,1.8166,1.8205,1.8227,1.8257,1.8273,1.8296,1.8318,1.8356,1.8381,1.8401,1.8431,1.8465,1.8494,1.8502,1.8513,1.851,1.8521,1.8516,1.8516,1.8516,1.8511,1.8513,1.8513,1.8524,1.8524,1.8524]},{"header":{"parameterUnit":"m.s-1","parameterCategory":1,"la1":30.2991,"la2":30.254,"lo1":-89.0895,"lo2":-89.0444,"dy":0.0017,"dx":0.0017,"nx":28,"ny":28,"refTime":"2025-03-17T03:00:00:Z","depth":0,"parameterNumber":3,"parameterNumberName":"V-component_of_WINDS"},"data":[0,0,0,0,0,0,0,0,0,0,0,0,0,0,0,0,0,0,0,0,0,0,0,0,0,0,0,0,0,0,0,0,0,0,0,0,0,0,0,0,0,0,0,0,0,0,0,0,0,0,0,0,0,0,0,0,0,0,-3.1164,-3.1165,0,-3.1287,-3.1288,-3.129,-3.1349,-3.1349,-3.1349,-3.1349,-3.1472,-3.1475,-3.1478,0,0,0,0,0,0,0,0,0,0,0,0,0,-3.0979,-3.0982,-3.1164,-3.1165,-3.1167,-3.1287,-3.1288,-3.129,-3.1349,-3.1349,-3.1349,-3.1349,-3.1471,-3.1475,-3.1479,0,0,0,0,0,0,0,0,0,0,0,0,0,-3.1076,-3.0983,-3.1163,-3.1211,-3.1216,-3.1286,-3.1288,-3.129,-3.1349,-3.1349,-3.1349,-3.1349,-3.1469,-3.1474,-3.1479,-3.1511,0,0,-3.1494,-3.1496,0,0,0,0,0,0,0,0,-3.1071,-3.1083,-3.1202,-3.1207,-3.1214,-3.1302,-3.1269,-3.1364,-3.1349,-3.1298,-3.1349,-3.1349,-3.1415,-3.1425,-3.1448,-3.1517,-3.1522,-3.1495,-3.1498,-3.15,-3.1501,0,0,0,0,0,0,0,-3.1064,-3.1078,-3.1212,-3.1204,-3.1211,-3.1226,-3.1239,-3.1287,-3.1355,-3.1303,-3.1307,-3.1321,-3.1418,-3.1443,-3.1451,-3.1524,-3.1495,-3.1499,-3.1502,-3.1504,-3.1629,-3.1629,0,0,0,0,0,0,-3.105,-3.1072,-3.1208,-3.1216,-3.1141,-3.1229,-3.1244,-3.1274,-3.1355,-3.1368,-3.1321,-3.1323,-3.1434,-3.1445,-3.1456,-3.1501,-3.15,-3.1505,-3.1507,-3.1628,-3.1629,-3.1629,0,0,0,0,0,0,-3.1045,-3.1061,-3.1203,-3.1145,-3.1165,-3.1232,-3.1265,-3.1276,-3.1301,-3.1369,-3.1381,-3.1334,-3.1435,-3.1449,-3.1498,-3.1506,-3.1507,-3.1511,-3.1628,-3.1628,-3.1629,-3.1589,0,0,0,0,0,0,-3.104,-3.1059,-3.1072,-3.1145,-3.1167,-3.1243,-3.1265,-3.1279,-3.131,-3.1314,-3.1384,-3.1396,-3.1436,-3.149,-3.1503,-3.1513,-3.1515,-3.1627,-3.1628,-3.1629,-3.159,-3.1588,-3.1587,0,0,0,0,0,-3.1033,-3.1054,-3.1072,-3.1088,-3.1185,-3.1244,-3.1256,-3.1303,-3.131,-3.1324,-3.1368,-3.1393,-3.1503,-3.1495,-3.1509,-3.1521,-3.1627,-3.1628,-3.1629,-3.1591,-3.1589,-3.1587,0,0,0,0,0,0,-3.0978,-3.1065,-3.1085,-3.1131,-3.118,-3.1253,-3.1272,-3.1299,-3.1345,-3.1347,-3.1403,-3.1418,-3.1463,-3.1496,-3.1486,-3.1558,-3.1567,-3.1571,-3.1534,-3.1532,-3.1531,-3.1522,-3.1519,0,0,0,0,0,-3.0972,-3.1013,-3.1086,-3.112,-3.1143,-3.1203,-3.1231,-3.1263,-3.1315,-3.1335,-3.1383,-3.1432,-3.1478,-3.1507,-3.1553,-3.1595,-3.1613,-3.1611,-3.1609,-3.1607,-3.161,-3.1638,-3.1639,-3.1631,-3.1631,-3.1631,0,0,-3.0958,-3.1011,-3.1033,-3.111,-3.1152,-3.1193,-3.122,-3.1262,-3.1294,-3.1341,-3.1392,-3.1429,-3.1487,-3.1534,-3.1557,-3.1564,-3.1616,-3.1608,-3.1606,-3.161,-3.1639,-3.164,-3.164,-3.1632,-3.1632,-3.1632,0,0,-3.0956,-3.0999,-3.1033,-3.1075,-3.1138,-3.1179,-3.1187,-3.1257,-3.1284,-3.1336,-3.1373,-3.1412,-3.1489,-3.153,-3.1561,-3.1578,-3.1604,-3.1591,-3.1582,-3.1609,-3.161,-3.161,-3.1619,-3.162,-3.1593,-3.1593,-3.1593,0,-3.0931,-3.0996,-3.1047,-3.1088,-3.1122,-3.1169,-3.1205,-3.1242,-3.1317,-3.1339,-3.1346,-3.1446,-3.1488,-3.1547,-3.1552,-3.1574,-3.1586,-3.1583,-3.1605,-3.1607,-3.1608,-3.1617,-3.1619,-3.1591,-3.1591,-3.1592,-3.1592,0,-3.0963,-3.1008,-3.1028,-3.1101,-3.1137,-3.1175,-3.1232,-3.1262,-3.1292,-3.1332,-3.1385,-3.1438,-3.1497,-3.1513,-3.1541,-3.1577,-3.1579,-3.1595,-3.1606,-3.1607,-3.1615,-3.1619,-3.1589,-3.1589,-3.159,-3.159,0,0,-3.0928,-3.1031,-3.1038,-3.1073,-3.1148,-3.1183,-3.1224,-3.1284,-3.131,-3.136,-3.1396,-3.1462,-3.1478,-3.1514,-3.1547,-3.157,-3.1584,-3.1584,-3.1586,-3.1584,-3.1629,-3.1617,-3.162,-3.1601,-3.1602,-3.1603,-3.1625,0,-3.0937,-3.1014,-3.1062,-3.112,-3.1163,-3.121,-3.1246,-3.1296,-3.1335,-3.1377,-3.142,-3.1467,-3.1483,-3.1505,-3.1531,-3.1576,-3.1594,-3.1575,-3.1637,-3.1638,-3.1622,-3.1625,-3.1612,-3.163,-3.1628,-3.1629,-3.1629,0,-3.0957,-3.1009,-3.1071,-3.1145,-3.1165,-3.1196,-3.1256,-3.1296,-3.1354,-3.1381,-3.1422,-3.1457,-3.1503,-3.1511,-3.1576,-3.1563,-3.1591,-3.1617,-3.1619,-3.1628,-3.1634,-3.1634,-3.1637,-3.164,-3.1635,-3.1634,-3.1634,0,-3.0927,-3.1012,-3.1062,-3.109,-3.1176,-3.1198,-3.1235,-3.1294,-3.1327,-3.1379,-3.1402,-3.1458,-3.1489,-3.1532,-3.1581,-3.1582,-3.1643,-3.1653,-3.1667,-3.1666,-3.1678,-3.1677,-3.1687,-3.1694,-3.1694,-3.1694,-3.1693,0,-3.0933,-3.097,-3.1051,-3.1081,-3.1124,-3.118,-3.1221,-3.1262,-3.1314,-3.1354,-3.1397,-3.1433,-3.1496,-3.154,-3.1579,-3.1629,-3.1641,-3.1665,-3.1675,-3.1662,-3.1659,-3.1682,-3.1682,-3.1694,-3.1694,-3.1694,-3.1694,0,-3.0907,-3.0962,-3.102,-3.1098,-3.1119,-3.1147,-3.1214,-3.1246,-3.1288,-3.1338,-3.1353,-3.1419,-3.1474,-3.1528,-3.16,-3.1626,-3.1676,-3.1688,-3.1657,-3.1663,-3.1674,-3.1673,-3.17,-3.1707,-3.1707,-3.1707,-3.1707,0,-3.0907,-3.0937,-3.102,-3.1051,-3.1087,-3.1135,-3.117,-3.1227,-3.1262,-3.1333,-3.1357,-3.1415,-3.1465,-3.155,-3.1604,-3.1661,-3.1676,-3.1682,-3.1684,-3.1671,-3.1678,-3.1677,-3.1681,-3.168,-3.168,-3.1679,-3.1679,0,-3.0903,-3.093,-3.098,-3.1041,-3.1082,-3.1132,-3.1184,-3.1206,-3.1273,-3.131,-3.1368,-3.1406,-3.1483,-3.154,-3.1604,-3.1642,-3.1672,-3.1678,-3.1685,-3.1672,-3.1653,-3.1666,-3.1654,-3.1677,-3.1677,-3.1677,-3.1678,-3.1678,-3.0892,-3.0922,-3.0986,-3.1041,-3.1086,-3.1134,-3.1169,-3.1217,-3.1266,-3.1334,-3.1364,-3.1423,-3.1483,-3.1572,-3.161,-3.1657,-3.1664,-3.1673,-3.1675,-3.1677,-3.1675,-3.1645,-3.1668,-3.1668,-3.1668,-3.1668,-3.1668,0,-3.0891,-3.0935,-3.0986,-3.1058,-3.1102,-3.1128,-3.1188,-3.1223,-3.1274,-3.1328,-3.1378,-3.1445,-3.1502,-3.1562,-3.1623,-3.1649,-3.1665,-3.1663,-3.1662,-3.1671,-3.1664,-3.1653,-3.165,-3.165,-3.165,-3.165,-3.165,-3.165,-3.0896,-3.095,-3.0984,-3.1062,-3.1106,-3.1165,-3.1196,-3.1242,-3.1286,-3.136,-3.1408,-3.1448,-3.1505,-3.1571,-3.1625,-3.1642,-3.1663,-3.1658,-3.1678,-3.167,-3.1671,-3.1672,-3.1663,-3.1661,-3.1661,-3.1682,-3.1682,-3.1682]}]]